SPACEBEE-37 (46936 NORAD) Tracking and Keplerian Element Data
This shows tracking and keplerian element data for the satellite.
Feedback or suggestion? Click here.
Element | Value |
Catalog | 46936 |
Name | SPACEBEE-37 |
Epoch Orbit | 897 |
Epoch Day | 18.12450687 |
Epoch Year | 2021 |
RAAN | 157.5491 |
Inclination | 97.375 |
Eccentricity | 0.0017118 |
Argument of Perigee | 94.3604 |
Mean Anonmoly | 265.9593 |
Mean Motion | 15.21682473 |
Decay Rate | 3.624E-05 |
L1 | 1 46936U 20085H 21018.12450687 .00003624 00000-0 16266-3 0 9997 |
L2 | 2 46936 97.3750 157.5491 0017118 94.3604 265.9593 15.21682473 8979 |
Live tracking and technical data element details for SPACEBEE-37 (NORAD 46936). SPACEBEE-37 can be tracked NOW for your location showing map with azimuth and elevation plus other details from your city location.
Track the satellite on the map from your city or location and see movement details for azimuth, elevation, latitude, longitude, range, height, and movement on the map or in text.
IsCatalogInMostPopularTable: catalog: 46936, numindb: 20
Update: records affected: 1
GetName: 46936 SPACEBEE-37
Hit Count: updated at: Mon, 18 Jan 2021 16:57:14 GMT